User: anonymous   Login
Location: Caltech
(34.1382°N, 118.1253°W)
Time: 20:22:05
(UTC-07:00)
Language:

FENGYUN 3A - Orbit

View from above orbital plane
View from above orbital plane
View from above satellite
View from above satellite

Ground track
Ground track

The orbit data is extracted from the following two-line orbital elements,

1 32958U 08026A   14304.73552014  .00000179  00000-0  10496-3 0  5000
2 32958 098.5382 358.8555 0009402 176.8530 183.2707 14.19485454333213
Epoch (UTC): 31 October 2014 17:39:08
Eccentricity: 0.0009402
inclination: 98.5382°
perigee height: 820 km
apogee height: 834 km
right ascension of ascending node: 358.8555°
argument of perigee: 176.8530°
revolutions per day: 14.19485454
mean anomaly at epoch: 183.2707°
orbit number at epoch: 33321

The dashed part of the orbit path shows where the satellite is in the earth's shadow,  

DLR